Location: Oberkirch
(48.5323°N, 8.0787°E)
Time: 17:46:13
(UTC+00:00)

ADEOS II - Pass Details

Date: 08 November 2025
Orbit: 794 x 794 km, 98.8° (Epoch: 10 December)

Event Time Altitude Azimuth Distance (km) Brightness Sun altitude
Rises 03:36:37 0° 6° (N) 3,310 5.4 -28.0°
Reaches altitude 10° 03:39:14 10° 355° (N) 2,376 4.5 -27.6°
Enters shadow 03:39:54 13° 351° (N) 2,163 4.3 -27.5°
